Whitewater Creek, Colorado (Grand Mesa) Weather observations

Data are for observation ending at time listed.
 Day   Time    Ave.   Ave.  Ave.  Vector   Max.    Total    Solar   Ave.  
  of    of     Air    Rel.  Wind   Wind    Wind   Precip.   Rad.    Soil  
Year   Day     Temp.  Hum.  Speed  Dir.    Gust                     Temp. 
2014   (MST)    F      %     mph   deg.    mph      in.     W/m2     F   
------------------------------------------------------------------------------
 265    4:00   46.5    93   17.6   200     25.3    99999.00   99999    99999.0
 265    4:10   46.4    95   18.5   198     29.1    99999.00   99999    99999.0
 265    4:20   46.4    96   19.0   194     26.6    99999.00   99999    99999.0
 265    4:30   46.4    96   17.7   192     25.3    99999.00   99999    99999.0
 265    4:40   46.4    96   22.1   194     31.7    99999.00   99999    99999.0
 265    4:50   46.4    96   21.8   196     30.4    99999.00   99999    99999.0
 265    5:00   46.1    96   21.7   201     29.1    99999.00   99999    99999.0
 265    5:10   46.0    97   20.6   197     29.1    99999.00   99999    99999.0
 265    5:20   46.0    97   19.2   198     24.0    99999.00   99999    99999.0
 265    5:30   46.0    97   19.0   198     25.3    99999.00   99999    99999.0
 265    5:40   46.1    97   20.0   202     26.6    99999.00   99999    99999.0
 265    5:50   46.1    97   20.4   201     25.3    99999.00   99999    99999.0
 265    6:00   46.2    97   21.9   201     27.8    99999.00   99999    99999.0
 265    6:10   46.3    97   21.7   205     29.1    99999.00   99999    99999.0
 265    6:20   46.3    97   21.9   203     29.1    99999.00   99999    99999.0
 265    6:30   46.4    97   21.8   205     30.4    99999.00   99999    99999.0
 265    6:40   46.4    98   23.6   204     31.7    99999.00   99999    99999.0
 265    6:50   46.3    98   21.7   205     30.4    99999.00   99999    99999.0
 265    7:00   46.2    98   20.9   205     31.7    99999.00   99999    99999.0
 265    7:10   46.2    98   22.1   208     30.4    99999.00   99999    99999.0
 265    7:20   46.3    98   21.2   208     30.4    99999.00   99999    99999.0
 265    7:30   46.1    98   20.4   214     27.8    99999.00   99999    99999.0
 265    7:40   46.3    98   19.6   216     26.6    99999.00   99999    99999.0
 265    7:50   46.4    98   19.6   215     27.8    99999.00   99999    99999.0
 265    8:00   46.5    98   18.8   205     27.8    99999.00   99999    99999.0
 265    8:10   46.6    98   19.3   208     26.6    99999.00   99999    99999.0
 265    8:20   46.7    98   20.7   210     26.6    99999.00   99999    99999.0
 265    8:30   46.7    98   22.4   194     29.1    99999.00   99999    99999.0
 265    8:40   46.6    98   22.6   196     30.4    99999.00   99999    99999.0
 265    8:50   46.6    98   19.6   211     30.4    99999.00   99999    99999.0
 265    9:00   45.8    98   13.7   214     25.3    99999.00   99999    99999.0
 265    9:10   43.9    98   16.0   237     29.1    99999.00   99999    99999.0
 265    9:20   41.8    97   11.2   229     20.2    99999.00   99999    99999.0
 265    9:30   43.9    98   12.3   228     20.2    99999.00   99999    99999.0
 265    9:40   45.7    98   15.7   226     24.0    99999.00   99999    99999.0
 265    9:50   46.3    98    9.6   229     17.6    99999.00   99999    99999.0
 265   10:00   46.7    98   10.8   230     21.4    99999.00   99999    99999.0
 265   10:10   45.2    98   12.7   248     17.6    99999.00   99999    99999.0
 265   10:20   46.2    98   11.6   225     20.2    99999.00   99999    99999.0
 265   10:30   46.9    98   13.5   226     20.2    99999.00   99999    99999.0
 265   10:40   47.2    98   11.0   227     17.6    99999.00   99999    99999.0
 265   10:50   47.6    98    8.5   230     15.0    99999.00   99999    99999.0
 265   11:00   47.5    97   12.2   228     18.9    99999.00   99999    99999.0
 265   11:10   48.0    96    9.5   231     16.3    99999.00   99999    99999.0
 265   11:20   49.3    93    6.0   226     16.3    99999.00   99999    99999.0
 265   11:30   48.9    92    7.7   217     16.3    99999.00   99999    99999.0
 265   11:40   48.7    92   11.5   233     15.0    99999.00   99999    99999.0
 265   11:50   48.5    91   12.4   228     24.0    99999.00   99999    99999.0
 265   12:00   48.3    88   10.3   208     25.3    99999.00   99999    99999.0
 265   12:10   49.1    74   10.0   213     17.6    99999.00   99999    99999.0
 265   12:20   49.2    74    6.5   232     13.8    99999.00   99999    99999.0
 265   12:30   49.4    77    3.2   224     11.2    99999.00   99999    99999.0
 265   12:40   49.4    80    2.3   220      7.4    99999.00   99999    99999.0
 265   12:50   49.0    85    2.3   231      3.5    99999.00   99999    99999.0
 265   13:00   49.5    81    2.4   226      4.8    99999.00   99999    99999.0
 265   13:10   50.7    76    2.3   230      7.4    99999.00   99999    99999.0
 265   13:20   51.4    74    2.5   220      8.6    99999.00   99999    99999.0
 265   13:30   51.9    74    2.3   221      4.8    99999.00   99999    99999.0
 265   13:40   52.8    72    2.6   221     12.5    99999.00   99999    99999.0
 265   13:50   52.6    72    2.6   236     11.2    99999.00   99999    99999.0
 265   14:00   53.1    71    2.3   220      4.8    99999.00   99999    99999.0
 265   14:10   52.6    71    2.3   235      3.5    99999.00   99999    99999.0
 265   14:20   53.6    69    2.2   250      3.5    99999.00   99999    99999.0
 265   14:30   52.0    74    2.3   266      4.8    99999.00   99999    99999.0
 265   14:40   52.4    73    2.3   266      3.5    99999.00   99999    99999.0
 265   14:50   54.3    69    2.3   268      4.8    99999.00   99999    99999.0
 265   15:00   52.7    70    2.8   281     15.0    99999.00   99999    99999.0
 265   15:10   53.0    68    2.3   258      4.8    99999.00   99999    99999.0
 265   15:20   53.5    67    2.3   224      3.5    99999.00   99999    99999.0
 265   15:30   52.9    67    2.2   236      2.2    99999.00   99999    99999.0
 265   15:40   53.4    68    2.5   224      9.9    99999.00   99999    99999.0
 265   15:50   52.4    72    2.2   269      2.2    99999.00   99999    99999.0
 265   16:00   52.2    72    2.2   266      2.2    99999.00   99999    99999.0
 265   16:10   52.4    70    2.3   284      4.8    99999.00   99999    99999.0
 265   16:20   51.7    69    2.3   263      4.8    99999.00   99999    99999.0
 265   16:30   53.1    64    2.3   259      7.4    99999.00   99999    99999.0
 265   16:40   51.8    69    2.2   273      3.5    99999.00   99999    99999.0
 265   16:50   52.7    68    2.4   275      7.4    99999.00   99999    99999.0
 265   17:00   52.8    68    2.2   268      2.2    99999.00   99999    99999.0
 265   17:10   51.8    71    2.2   269      2.2    99999.00   99999    99999.0
 265   17:20   52.1    69    2.2   264      2.2    99999.00   99999    99999.0
 265   17:30   52.5    68    2.2   265      2.2    99999.00   99999    99999.0
 265   17:40   50.5    72    2.2   278      2.2    99999.00   99999    99999.0
 265   17:50   49.9    76    2.2   282      2.2    99999.00   99999    99999.0
 265   18:00   49.3    78    2.2   288      2.2    99999.00   99999    99999.0
 265   18:10   48.9    79    2.2   290      2.2    99999.00   99999    99999.0
 265   18:20   48.6    79    2.2   289      2.2    99999.00   99999    99999.0
 265   18:30   47.8    82    2.2   283      2.2    99999.00   99999    99999.0
 265   18:40   47.4    83    2.2   273      2.2    99999.00   99999    99999.0
 265   18:50   46.9    85    2.2   273      2.2    99999.00   99999    99999.0
 265   19:00   46.6    86    2.2   273      2.2    99999.00   99999    99999.0
 265   19:10   46.5    83    2.2   273      2.2    99999.00   99999    99999.0
 265   19:20   46.1    81    2.2   271      2.2    99999.00   99999    99999.0
 265   19:30   46.4    78    2.2   260      2.2    99999.00   99999    99999.0
 265   19:40   46.8    70    2.2   258      2.2    99999.00   99999    99999.0
 265   19:50   46.6    69    2.2   256      2.2    99999.00   99999    99999.0
 265   20:00   47.1    69    2.2   254      2.2    99999.00   99999    99999.0
 265   20:10   46.9    70    2.2   256      2.2    99999.00   99999    99999.0
 265   20:20   45.4    75    2.2   255      2.2    99999.00   99999    99999.0
 265   20:30   45.0    78    2.2   255      2.2    99999.00   99999    99999.0
 265   20:40   44.9    79    2.2   255      2.2    99999.00   99999    99999.0
 265   20:50   44.9    79    2.2   255      2.2    99999.00   99999    99999.0
 265   21:00   44.8    80    2.2   255      2.2    99999.00   99999    99999.0
 265   21:10   44.2    81    2.2   255      2.2    99999.00   99999    99999.0
 265   21:20   43.8    82    2.2   255      2.2    99999.00   99999    99999.0
 265   21:30   44.0    82    2.2   255      2.2    99999.00   99999    99999.0
 265   21:40   44.7    82    2.2   246      2.2    99999.00   99999    99999.0
 265   21:50   45.3    81    2.2   242      2.2    99999.00   99999    99999.0
 265   22:00   45.4    81    2.2   240      2.2    99999.00   99999    99999.0
 265   22:10   45.7    79    2.2   236      2.2    99999.00   99999    99999.0
 265   22:20   45.3    80    2.2   236      2.2    99999.00   99999    99999.0
 265   22:30   45.5    79    2.2   236      2.2    99999.00   99999    99999.0
 265   22:40   44.7    81    2.2   236      2.2    99999.00   99999    99999.0
 265   22:50   43.7    82    2.2   236      2.2    99999.00   99999    99999.0
 265   23:00   43.5    82    2.2   236      2.2    99999.00   99999    99999.0
 265   23:10   44.0    81    2.2   236      2.2    99999.00   99999    99999.0
 265   23:20   43.3    82    2.2   236      2.2    99999.00   99999    99999.0
 265   23:30   43.5    81    2.2   236      2.2    99999.00   99999    99999.0
 265   23:40   42.6    84    2.2   236      2.2    99999.00   99999    99999.0
 265   23:50   43.2    82    2.2   236      2.2    99999.00   99999    99999.0
 266    0:00   42.4    82    2.2   235      2.2    99999.00   99999    99999.0
 266    0:10   42.2    83    2.2   232      2.2    99999.00   99999    99999.0
 266    0:20   42.8    83    2.2   232      2.2    99999.00   99999    99999.0
 266    0:30   43.0    84    2.2   232      2.2    99999.00   99999    99999.0
 266    0:40   43.8    83    2.2   231      2.2    99999.00   99999    99999.0
 266    0:50   44.8    82    2.2   231      2.2    99999.00   99999    99999.0
 266    1:00   44.5    84    2.2   231      2.2    99999.00   99999    99999.0
 266    1:10   44.4    85    2.2   231      2.2    99999.00   99999    99999.0
 266    1:20   44.3    85    2.2   231      2.2    99999.00   99999    99999.0
 266    1:30   44.2    86    2.2   231      2.2    99999.00   99999    99999.0
 266    1:40   44.0    86    2.2   231      2.2    99999.00   99999    99999.0
 266    1:50   43.6    87    2.2   231      2.2    99999.00   99999    99999.0
 266    2:00   43.3    87    2.2   231      2.2    99999.00   99999    99999.0
 266    2:10   43.2    87    2.2   231      2.2    99999.00   99999    99999.0
 266    2:20   43.1    88    2.2   231      2.2    99999.00   99999    99999.0
 266    2:30   43.3    87    2.2   230      2.2    99999.00   99999    99999.0
 266    2:40   43.2    87    2.2   229      2.2    99999.00   99999    99999.0
 266    2:50   42.9    87    2.2   229      2.2    99999.00   99999    99999.0
 266    3:00   41.2    89    2.2   229      2.2    99999.00   99999    99999.0
 266    3:10   41.1    91    2.2   229      2.2    99999.00   99999    99999.0
 266    3:20   41.8    91    2.2   229      2.2    99999.00   99999    99999.0
 266    3:30   41.6    92    2.2   229      2.2    99999.00   99999    99999.0
 266    3:40   41.9    93    2.2   229      2.2    99999.00   99999    99999.0
 266    3:50   42.6    90    2.2   229      2.2    99999.00   99999    99999.0

Return to Whitewater Creek, Colorado graphs page.


Western Regional Climate Center,wrcc@dri.edu